Theta_e
286 285 285 286 285 285 285 286 285 285 286 286 284 284 285 285 281 279 285 286 284 285 282 280 278 279 280 280 279 279 280 279 280 280 279 280 280 281 281 281 281 281 281 281 282 282 282 282 283 283 284 284 284 284 285 285 286 286 286 285 285 285 285 285 285 286 286 286 286 285 286 286 286 286 286 286 286 285 285 284 284 284 284 283 283 282 282
281 283 284 285 284 283 284 284 285 286 286 285 285 285 286 286 284 285 285 286 285 286 278 279 280 280 279 281 281 280 280 279 279 280 279 279 280 280 280 281 281 282 282 282 282 282 282 282 282 283 283 284 284 284 284 285 285 286 286 285 284 284 284 285 285 285 285 285 285 285 285 285 285 285 285 285 285 285 285 284 284 284 283 283 282 282 282
278 281 282 283 283 282 281 282 284 284 284 284 284 284 284 285 283 285 285 285 285 279 280 278 281 281 281 281 280 279 280 280 280 279 279 279 280 280 280 281 281 281 281 282 282 282 282 283 283 283 283 283 283 283 284 284 284 285 285 284 284 284 284 284 284 285 284 284 285 284 285 285 285 285 285 285 285 284 284 284 283 283 282 282 282 282 282
274 278 278 279 280 280 279 279 280 280 279 278 280 279 282 281 279 282 282 281 282 277 279 279 279 280 278 278 279 279 279 280 280 279 280 280 280 280 280 280 281 281 282 282 282 282 283 283 283 283 283 283 283 283 284 284 284 285 284 284 283 283 283 283 284 284 284 283 283 284 284 284 284 284 284 284 284 283 283 283 283 282 282 282 282 282 282
272 277 278 277 277 275 272 273 277 278 279 280 281 282 280 278 280 279 279 277 276 277 279 276 276 277 278 278 279 279 279 280 280 280 280 280 281 281 281 281 281 282 282 283 283 283 283 283 283 284 284 284 283 284 284 284 285 284 284 283 283 283 283 283 283 283 283 282 282 282 283 283 283 283 282 283 283 282 282 283 282 281 282 282 282 282 282
271 275 274 272 269 264 266 276 279 280 278 279 278 277 276 278 279 276 278 276 278 277 276 276 276 276 277 279 280 281 280 280 280 279 281 281 281 282 282 282 282 282 283 283 283 283 283 283 284 284 284 284 284 284 285 285 284 284 283 283 283 283 283 283 282 282 282 282 281 282 282 282 282 281 281 282 282 282 282 282 282 282 282 282 282 281 281
268 269 266 267 262 264 272 275 278 278 277 276 275 275 276 277 279 278 277 278 276 278 277 278 279 279 280 281 280 281 281 281 280 280 281 281 281 282 282 282 282 282 282 282 283 282 282 283 284 284 283 284 284 284 285 285 284 284 284 283 283 283 283 283 282 282 281 281 281 281 281 281 281 281 281 282 282 282 282 282 282 282 282 281 281 281 281
267 267 265 262 261 274 276 278 277 278 277 276 274 271 273 273 276 279 275 278 277 278 279 279 280 280 279 279 280 280 281 282 281 281 281 281 282 282 282 282 282 282 282 282 282 282 283 283 283 283 283 283 283 283 284 284 284 284 284 283 283 284 283 283 282 282 281 280 280 280 280 280 280 281 281 281 282 282 281 282 282 282 281 281 281 280 280
266 267 266 267 273 274 275 273 275 274 272 273 271 266 274 271 271 276 276 278 278 278 278 279 279 280 280 278 277 281 281 282 282 282 282 282 282 283 283 282 282 282 282 282 282 282 282 282 282 282 283 283 283 283 283 283 283 283 283 282 283 283 283 283 282 282 281 280 279 279 280 280 280 280 281 281 281 281 280 280 281 280 280 280 280 280 280
276 269 269 269 268 264 267 272 272 276 276 277 277 276 270 274 271 275 277 276 276 276 277 276 276 277 274 271 274 280 280 281 282 282 283 283 283 282 281 280 280 281 281 281 281 282 281 282 282 282 282 282 282 282 282 282 281 281 281 281 282 283 282 283 282 282 281 280 279 278 278 278 279 280 280 280 280 280 279 279 279 279 279 279 278 278 278
275 272 269 267 266 268 275 273 276 276 276 278 276 271 265 275 271 273 278 276 277 277 277 277 278 275 270 271 274 277 279 280 280 280 281 282 282 281 280 280 280 280 280 281 281 281 281 281 281 282 281 281 281 280 281 280 280 280 280 281 282 282 282 283 283 282 282 281 280 279 278 279 278 277 277 278 279 277 277 278 278 278 277 277 276 276 276
272 271 268 265 267 263 269 268 270 272 273 276 275 266 268 273 271 274 277 277 277 277 278 277 277 275 270 272 276 278 278 278 279 280 281 281 281 281 281 280 280 280 281 280 280 280 280 280 281 281 281 280 280 280 279 279 279 279 280 280 281 282 282 282 283 283 283 281 281 280 279 279 278 277 276 275 274 275 274 274 274 274 274 274 274 274 274
270 272 268 270 268 274 271 270 272 273 275 273 264 263 268 272 271 273 276 277 278 278 277 277 274 277 278 278 278 278 278 277 278 280 281 281 281 280 279 279 281 280 280 279 279 279 279 280 280 279 279 279 278 278 278 278 278 279 280 280 280 280 281 281 282 282 282 282 281 280 280 278 278 277 276 275 275 273 273 272 270 270 271 272 272 272 272
265 264 265 265 267 270 274 270 274 275 272 261 265 269 274 274 275 274 276 277 278 278 277 277 277 278 279 279 279 278 278 278 279 279 280 278 277 277 277 279 279 279 278 278 278 279 279 279 278 278 278 277 277 277 277 277 278 279 280 279 279 279 279 280 281 281 282 282 282 280 279 278 277 277 277 275 275 274 273 273 272 272 271 271 270 270 270
262 264 264 264 262 269 271 273 273 274 266 266 272 273 274 274 273 274 274 275 276 277 276 278 278 278 278 278 278 279 279 278 278 278 277 275 275 275 275 276 276 276 276 276 277 277 278 277 277 277 277 276 275 276 275 276 278 279 278 278 277 277 278 278 279 280 281 281 281 281 279 278 277 277 277 275 274 274 273 273 272 272 272 272 271 270 269
265 263 262 261 264 271 274 270 266 268 273 275 275 274 275 277 275 273 274 274 275 276 276 277 277 278 278 278 278 277 277 277 277 275 275 274 274 275 275 275 275 273 273 274 275 275 275 275 276 276 275 274 274 274 274 276 277 277 276 275 275 275 276 277 277 277 278 279 280 280 280 279 277 276 276 275 274 273 273 273 273 272 272 271 271 270 270
267 261 266 271 272 273 274 274 274 276 277 278 278 276 275 275 275 274 273 275 276 276 276 277 277 277 277 277 277 276 276 276 275 274 274 274 274 274 274 274 274 272 272 272 273 272 273 273 273 274 274 273 273 272 274 275 274 273 272 272 273 273 274 274 274 275 276 277 278 279 279 278 277 277 276 275 273 273 273 273 273 272 272 272 271 271 271
274 275 275 277 275 275 276 278 279 278 278 278 277 275 274 274 275 275 275 276 276 276 276 275 276 276 276 275 275 275 274 273 273 273 273 273 273 273 272 272 272 271 270 270 270 270 271 271 271 272 272 272 271 272 273 273 272 271 270 270 270 270 270 271 272 272 273 274 275 277 278 278 277 277 277 276 274 274 273 272 273 273 273 272 271 271 271
270 266 275 274 274 276 276 276 277 277 277 276 276 275 275 275 276 276 276 275 275 275 273 273 274 274 274 273 273 272 272 272 272 272 272 272 272 271 271 271 270 269 269 269 269 269 269 270 270 269 269 270 271 271 271 270 270 269 268 268 268 267 267 268 269 270 270 271 272 274 275 277 277 276 276 276 275 274 273 272 272 272 273 272 272 271 271
270 269 274 275 277 276 277 276 276 276 277 278 276 276 276 275 275 274 273 271 270 272 270 271 270 270 271 270 270 270 271 271 271 271 271 271 271 271 271 270 269 267 267 267 267 268 268 269 269 268 268 268 268 268 268 268 267 266 266 266 265 265 265 266 267 267 268 270 271 272 273 275 276 276 276 275 275 274 274 273 273 272 272 272 272 272 272
273 275 276 276 276 276 276 277 277 277 277 276 275 274 272 271 270 270 270 271 271 270 270 270 269 268 269 269 269 269 269 269 270 270 270 270 269 269 269 268 268 267 267 267 267 266 267 267 267 266 266 266 266 266 266 265 264 263 263 264 264 263 264 264 265 267 268 269 269 271 272 273 275 276 276 276 275 275 276 276 275 274 274 274 274 274 273
269 269 272 275 269 269 274 275 275 273 272 272 271 270 269 269 268 269 268 269 270 269 269 269 269 267 267 268 268 267 268 268 268 268 268 268 268 267 268 268 267 266 266 265 265 265 265 266 265 264 264 264 264 264 263 263 262 261 261 261 261 261 262 263 264 265 266 267 268 270 270 272 273 274 276 279 278 276 276 278 279 280 279 276 275 275 274
268 274 276 276 275 275 276 276 271 267 269 269 268 267 267 268 268 268 268 267 267 267 267 268 267 266 267 267 268 267 267 267 267 267 266 266 266 266 266 265 265 265 265 265 264 263 264 264 263 263 262 262 262 262 262 261 261 260 260 260 260 261 262 262 264 265 265 266 266 267 268 269 270 271 272 275 279 281 280 279 279 280 281 281 280 279 275
276 277 277 277 276 274 275 272 268 267 267 266 266 267 267 267 267 267 266 266 265 265 266 266 266 266 266 266 266 264 265 265 265 265 265 265 265 265 265 265 264 263 263 262 262 262 262 262 261 261 260 260 260 260 260 260 260 259 259 259 259 260 260 261 262 262 263 263 264 264 265 266 267 268 270 271 273 277 280 280 281 280 280 281 281 280 280
275 277 269 268 269 270 271 271 267 266 266 265 265 265 266 266 265 266 264 264 265 264 264 264 265 265 264 264 264 263 263 263 264 264 264 264 264 263 263 262 261 261 260 261 260 260 260 259 259 259 259 259 259 259 259 259 259 259 259 259 258 259 259 260 260 261 262 262 263 264 264 266 267 269 270 271 271 271 274 278 280 281 280 280 280 281 281
266 265 266 267 267 269 268 268 266 265 264 265 264 265 265 265 264 264 263 263 263 263 263 263 262 263 263 262 262 262 262 262 262 262 261 260 260 260 259 259 259 259 259 259 258 258 258 258 258 258 257 258 258 258 258 258 258 258 258 258 258 259 259 259 260 260 261 262 263 264 266 267 268 269 270 271 271 272 271 272 273 277 280 281 280 280 280
263 263 265 269 271 267 264 264 263 263 263 264 263 263 263 263 263 262 262 262 261 262 262 262 262 262 262 261 261 260 259 260 259 259 258 258 257 257 258 258 258 257 257 257 257 257 257 257 257 257 257 257 258 258 258 258 258 258 258 258 258 260 261 262 261 262 263 263 264 265 266 266 267 268 269 270 271 271 271 271 271 271 272 275 278 280 278
261 261 263 264 266 264 262 262 262 263 263 262 262 261 261 261 259 258 258 259 260 260 261 260 260 259 258 259 258 257 257 256 255 256 256 255 256 256 256 256 256 256 256 256 256 256 256 256 256 256 256 257 258 258 258 258 258 257 258 258 259 259 260 261 261 262 263 263 264 264 264 265 265 267 269 271 271 271 271 271 271 271 272 273 274 277 280
260 260 260 260 261 262 262 262 261 261 260 261 261 260 258 257 256 257 257 258 259 258 258 258 257 257 257 256 256 254 254 254 254 254 254 255 255 255 255 255 255 255 255 255 255 256 255 255 255 255 255 257 257 257 258 258 258 258 258 258 259 259 260 260 261 262 263 263 264 265 266 266 266 267 267 268 270 271 271 271 271 271 272 272 272 273 276
259 259 258 258 259 260 259 258 258 258 258 259 258 257 257 256 255 256 256 256 256 255 256 256 255 255 255 254 254 254 253 253 253 254 254 254 255 255 255 255 255 255 255 254 254 255 255 255 255 255 256 257 258 258 258 258 258 258 258 259 259 259 260 261 262 263 264 264 265 266 266 266 267 267 267 268 269 270 270 270 270 270 270 271 272 271 271
257 257 256 257 257 257 256 256 257 257 258 257 256 255 255 256 254 254 255 255 255 254 255 254 253 253 253 253 253 254 254 254 254 254 254 255 255 255 255 256 254 253 253 254 255 255 255 255 256 256 257 258 258 258 258 257 258 258 259 259 259 260 261 261 263 261 262 262 263 264 265 266 267 268 268 269 269 270 270 270 270 270 270 270 271 271 271
254 253 253 256 256 254 254 255 256 255 255 255 254 253 253 253 252 252 253 253 253 253 252 252 252 252 252 253 253 253 253 253 254 254 254 255 255 255 256 255 255 256 255 255 256 256 256 255 255 255 256 256 257 256 256 256 256 256 256 257 257 258 259 261 261 262 262 263 263 263 264 266 267 269 269 269 269 269 269 269 269 269 269 270 270 271 272
251 253 254 254 253 253 253 252 253 253 253 252 253 253 253 253 253 253 253 253 252 252 252 252 252 252 253 253 253 253 254 254 254 254 254 254 254 254 255 255 255 255 254 254 254 254 254 253 254 255 255 255 256 256 256 256 256 256 256 257 258 259 260 261 261 261 261 262 263 264 265 266 266 267 268 269 269 269 269 269 269 269 269 270 270 272 273
253 253 253 252 251 252 252 251 252 252 252 253 253 253 252 252 252 252 252 252 251 251 251 252 252 253 254 254 254 254 254 253 252 252 253 253 253 254 254 254 253 253 253 253 253 253 254 254 254 254 255 255 255 255 256 256 256 256 256 256 256 257 257 257 258 258 259 260 260 262 262 263 267 268 269 269 269 269 269 269 269 269 269 269 270 271 273
255 255 255 253 253 253 253 252 251 251 251 251 251 251 251 251 251 251 252 251 251 251 252 253 254 254 254 255 255 254 253 252 252 252 252 253 253 252 252 252 252 252 252 252 253 253 254 254 254 254 255 255 256 256 256 256 256 256 256 256 256 257 257 257 258 258 258 259 260 260 262 263 264 267 269 269 269 269 268 268 269 269 269 269 270 271 272
253 252 252 252 252 251 251 251 251 251 250 250 250 250 250 250 250 250 250 251 252 253 253 254 254 255 255 254 253 253 252 252 252 252 252 252 252 252 251 251 251 250 251 251 253 254 255 254 256 256 256 256 256 256 256 256 256 256 256 256 257 257 257 258 258 259 259 260 260 261 262 264 265 266 268 269 269 268 268 268 268 268 269 269 270 270 271
252 251 251 251 251 250 250 250 250 250 250 250 250 250 250 250 250 251 251 252 252 253 254 255 255 254 254 254 254 254 253 253 253 252 252 252 252 251 250 251 251 251 251 250 252 254 254 255 256 256 256 256 256 256 257 258 257 257 257 257 257 257 257 258 258 258 259 260 260 261 262 264 265 267 268 268 268 268 268 268 268 268 269 269 269 270 270
250 250 249 250 250 250 249 249 250 249 249 248 249 250 250 250 250 251 251 252 253 254 255 255 254 254 254 254 253 253 253 253 252 252 251 251 251 250 251 251 251 251 251 251 253 254 254 255 256 256 256 257 257 257 258 259 259 259 258 258 258 258 258 258 259 260 260 260 262 262 263 264 266 267 267 267 267 267 267 268 267 268 268 268 269 269 268
250 250 250 250 250 250 249 250 249 249 249 248 249 249 250 251 251 252 253 254 255 256 255 254 254 253 253 253 252 252 252 252 252 251 251 251 251 251 251 252 252 252 253 254 255 255 255 256 256 256 256 257 257 258 259 259 260 260 260 260 260 259 259 259 260 260 261 261 262 263 264 266 267 267 266 266 267 267 266 267 267 266 267 267 265 262 262
249 249 249 249 249 249 249 249 249 249 249 249 249 249 250 251 252 252 253 254 255 255 254 254 253 252 252 252 252 251 252 252 252 251 251 251 251 251 252 253 254 254 255 255 255 255 256 256 256 256 256 257 257 258 259 260 260 260 260 260 261 262 262 262 261 261 261 262 262 263 264 265 265 265 265 265 265 265 265 265 265 264 263 261 262 261 260
249 249 250 249 249 249 249 249 249 249 249 250 250 250 251 252 253 254 254 253 254 254 254 253 252 252 252 252 251 251 252 252 252 252 252 252 251 251 251 251 254 254 254 255 255 255 255 255 255 255 256 257 258 259 259 260 260 259 259 260 260 261 261 262 262 263 263 263 263 263 263 263 263 263 263 263 263 263 264 263 262 261 261 261 259 259 259
249 249 249 249 249 249 249 250 250 249 250 250 251 252 253 254 254 253 254 254 254 254 253 253 254 253 252 252 252 252 251 252 252 252 252 251 251 251 250 252 254 254 255 255 255 255 254 254 255 256 256 257 257 258 259 259 259 258 259 259 259 260 260 260 261 261 261 262 262 262 262 262 261 261 261 261 262 262 261 260 260 260 259 259 259 258 258
249 248 248 248 249 249 249 249 249 249 250 251 252 253 254 254 254 254 254 254 254 253 253 253 253 253 252 252 251 251 251 251 251 251 252 253 253 253 252 252 254 254 255 255 255 254 254 254 254 255 256 257 257 258 258 258 258 258 258 258 258 259 259 259 259 260 260 260 260 260 260 260 260 260 260 260 260 260 260 259 259 258 258 258 257 257 257
248 248 247 248 248 249 249 249 250 250 250 252 254 254 254 254 254 254 253 253 253 253 253 252 252 252 252 251 250 250 250 250 250 250 250 251 252 253 254 253 253 254 255 254 254 254 253 254 254 255 256 256 257 257 257 257 257 257 257 257 257 257 258 258 258 258 258 258 258 258 259 259 259 259 259 259 259 259 258 258 258 257 258 258 258 257 257
248 248 248 248 248 249 249 250 250 251 252 253 254 254 253 253 253 254 253 253 253 253 253 253 253 253 252 251 250 250 250 251 250 250 249 250 249 250 253 254 253 254 254 254 254 253 253 254 254 255 255 255 256 256 256 256 256 256 256 256 257 257 257 257 257 257 257 257 257 258 258 258 258 258 258 258 257 257 257 257 257 257 257 257 256 256 256
248 248 248 250 250 249 251 251 253 253 254 253 253 253 254 253 253 254 254 253 253 253 253 253 253 252 252 251 251 251 251 251 251 251 251 251 250 251 253 253 253 254 254 254 253 253 253 254 255 254 254 254 254 254 254 254 255 255 256 256 256 256 256 256 256 256 256 256 257 257 257 257 257 256 256 256 256 256 256 256 256 257 257 257 256 256 255
248 248 249 249 251 252 253 254 254 254 253 252 251 252 253 254 254 254 253 254 253 253 253 253 253 253 252 251 251 250 250 250 251 251 251 252 252 252 253 253 253 253 253 252 252 252 253 253 254 254 254 253 253 252 252 253 253 254 254 255 255 255 256 256 256 256 256 256 256 256 256 256 256 256 256 256 256 256 256 255 255 255 255 254 254 254 254
248 249 251 252 253 254 254 254 253 252 252 252 252 253 253 254 254 254 254 254 254 254 253 253 252 251 251 250 250 249 250 249 248 250 251 251 251 251 251 251 252 253 253 252 252 252 253 253 253 253 253 253 251 251 251 251 252 252 252 253 253 254 254 254 254 255 255 255 255 255 255 255 255 255 255 255 255 255 255 254 254 254 254 254 254 254 254
249 251 252 254 254 254 254 253 253 253 252 253 253 253 254 254 253 253 253 253 253 253 253 252 252 251 250 251 250 250 250 250 249 249 251 251 251 251 251 252 252 252 251 250 250 250 251 252 252 252 252 252 250 250 250 250 251 251 251 251 252 252 253 253 253 253 253 253 253 253 253 253 253 253 253 253 253 254 254 254 254 254 254 253 253 253 253
251 252 253 254 253 253 253 253 252 253 253 253 253 254 254 253 252 252 253 253 253 253 252 252 252 251 251 251 251 250 250 250 251 251 251 251 251 251 251 251 251 252 251 250 249 249 250 251 251 251 251 250 250 250 250 250 250 250 250 250 251 251 251 252 252 252 252 252 252 252 252 252 252 252 252 252 252 252 252 252 252 252 252 252 252 252 252
252 252 253 254 254 254 254 254 254 254 254 254 254 254 254 253 252 253 253 253 252 251 251 251 252 251 251 251 251 251 251 251 251 252 251 251 251 252 252 251 251 251 251 250 249 248 249 249 249 250 250 250 249 250 250 250 250 250 250 250 250 250 250 250 250 250 250 250 251 251 251 251 251 251 251 251 251 251 251 251 251 251 251 251 250 250 249
252 252 254 254 254 254 254 254 255 255 254 254 254 254 253 253 252 252 252 253 252 251 251 250 250 251 251 250 251 251 251 251 251 250 251 251 251 251 251 251 250 250 249 249 249 249 249 249 250 250 250 249 249 249 250 250 249 249 249 250 250 250 250 249 249 249 249 249 249 249 249 249 250 250 250 250 250 250 249 249 249 249 249 248 248 248 248
Wind_Speed
5 8 11 10 11 9 8 9 9 10 10 12 15 16 15 13 13 16 12 15 18 15 4 7 9 7 10 9 8 8 6 6 8 9 11 12 11 12 12 12 10 9 9 8 10 11 11 11 12 12 12 13 12 11 11 11 11 12 11 11 11 11 11 11 12 13 13 10 9 10 11 11 11 11 11 12 11 11 11 13 12 13 12 12 12 13 12
8 12 11 10 13 12 13 10 9 9 11 15 15 17 12 13 16 17 17 17 20 7 4 6 3 3 3 3 4 6 9 11 10 10 11 11 10 11 12 12 12 10 11 10 10 10 11 11 12 12 12 12 12 13 13 12 12 11 11 11 11 11 12 12 12 12 12 11 11 10 10 10 11 11 11 11 11 11 13 13 12 10 10 11 13 14 14
11 12 13 13 13 13 16 14 12 11 13 17 16 15 16 18 21 16 18 15 13 5 4 3 3 2 2 1 3 6 6 9 10 10 11 10 10 9 8 10 11 10 10 10 11 13 13 13 12 11 10 9 10 10 12 13 14 13 11 12 12 11 13 13 13 13 13 12 11 11 11 10 9 9 11 10 10 11 11 10 11 11 11 13 15 14 14
13 14 15 14 12 11 10 13 15 19 21 20 13 13 15 14 14 12 14 14 7 3 2 1 3 4 7 6 5 2 4 5 7 9 10 10 10 9 8 8 9 11 11 11 12 13 13 13 13 12 12 11 10 12 11 12 12 11 12 12 11 10 10 11 12 13 13 13 13 12 10 11 10 10 9 8 10 10 10 10 10 9 12 15 13 12 12
12 15 15 10 10 11 13 14 21 22 16 16 16 15 5 3 2 5 6 3 3 3 2 3 6 4 7 5 6 4 3 3 5 7 8 8 9 8 9 9 9 10 10 11 12 12 12 12 12 12 11 11 11 11 12 10 10 10 10 10 10 10 9 10 11 11 12 13 12 12 11 10 9 8 8 8 9 9 11 11 8 11 12 11 13 13 13
11 13 11 3 5 12 15 6 1 2 11 7 9 4 4 4 3 1 2 2 1 1 3 2 5 4 5 6 6 3 2 3 5 8 7 7 7 7 7 8 9 9 9 9 10 10 11 11 9 9 9 9 10 9 9 9 9 9 10 12 11 11 10 10 11 11 11 11 11 12 11 11 9 8 8 10 10 9 8 6 9 11 11 13 12 12 14
9 6 5 8 13 13 2 2 1 5 5 7 7 5 2 1 4 6 3 4 0 4 3 6 6 7 7 6 8 6 5 1 3 8 7 8 7 9 8 8 8 8 9 10 10 10 10 10 10 10 10 9 10 10 10 11 10 9 9 9 8 8 9 10 10 11 12 12 12 12 11 9 9 9 9 9 9 8 8 10 11 12 12 13 13 12 12
2 1 4 6 6 8 1 0 0 1 7 6 8 2 3 1 3 3 3 6 6 6 7 7 7 6 7 4 8 8 8 4 3 4 6 7 6 7 7 8 9 10 9 10 9 9 8 9 9 9 10 10 10 11 10 10 12 11 11 11 11 11 11 11 11 11 11 12 12 12 12 11 10 10 9 9 9 8 7 8 8 7 8 8 11 12 12
8 5 8 13 7 15 8 3 2 3 0 1 1 2 2 7 4 3 4 6 6 6 8 8 7 7 5 6 7 6 8 7 5 6 8 7 7 8 7 7 8 9 9 8 8 7 8 8 8 9 9 9 10 11 10 10 10 11 11 12 13 14 13 13 12 11 11 11 12 11 11 11 12 11 11 10 9 6 7 8 8 9 10 10 10 11 12
9 7 8 8 6 8 3 1 4 1 4 2 3 3 4 6 2 3 5 5 8 7 7 6 7 3 3 7 7 4 7 6 7 6 7 7 7 7 8 6 7 8 8 7 7 7 9 8 8 8 8 9 10 10 10 10 10 11 11 12 12 12 13 13 13 12 11 11 11 11 10 11 11 11 9 8 8 6 8 9 9 10 9 9 8 9 11
5 7 8 8 8 6 4 7 5 5 3 3 2 2 4 4 1 5 7 6 6 6 8 9 3 0 5 8 7 7 8 7 5 7 7 8 9 8 7 7 9 8 8 7 8 7 8 9 9 7 8 9 9 9 9 10 9 10 10 11 11 12 13 13 12 11 11 11 11 11 11 11 10 10 10 9 8 5 7 7 9 7 6 7 7 7 8
7 7 8 10 4 2 3 4 2 3 1 3 1 9 6 3 4 4 7 8 7 7 8 7 5 7 9 9 8 5 7 8 5 5 8 7 8 8 7 7 8 9 8 6 7 8 9 10 8 7 6 8 9 10 10 9 9 10 10 10 10 11 12 12 12 12 11 11 11 11 12 12 10 9 8 8 7 7 7 7 8 7 6 7 8 8 7
11 14 10 6 6 3 1 5 5 4 3 2 5 15 5 1 2 4 7 9 9 7 7 6 7 10 12 11 9 8 7 4 4 6 7 9 7 7 7 8 8 7 7 7 8 9 8 7 7 6 6 7 9 9 9 10 11 10 10 10 11 12 12 12 12 12 11 10 12 12 10 11 10 9 7 7 7 6 8 7 6 6 7 7 7 6 6
9 7 8 9 7 5 5 3 3 2 2 2 10 3 1 2 8 4 7 8 8 7 9 8 10 11 12 11 8 7 8 9 7 6 7 6 6 6 6 8 7 7 6 8 9 9 7 7 6 6 6 8 10 10 9 11 12 10 10 10 11 12 13 13 13 13 12 12 11 10 10 9 11 11 8 6 6 6 6 6 7 8 6 6 6 6 5
1 0 5 5 8 2 5 1 4 1 4 7 4 4 6 3 5 5 6 6 8 7 9 10 12 12 12 11 12 11 10 8 9 8 6 7 7 7 8 9 7 6 7 9 10 10 9 7 6 7 7 10 11 11 12 13 11 9 9 11 12 14 14 14 14 14 13 14 13 10 10 10 10 12 9 7 7 5 6 6 8 8 8 7 6 7 6
9 6 7 5 4 3 3 2 4 2 5 3 5 5 12 11 7 5 6 5 7 8 9 11 11 12 13 11 10 10 8 8 8 7 6 7 7 9 8 8 9 5 6 8 10 9 9 8 8 8 7 10 12 13 15 12 9 9 10 12 13 15 15 14 14 15 15 14 13 11 11 11 10 11 10 8 7 6 7 7 7 8 7 6 6 7 8
3 5 6 7 3 1 3 3 6 8 10 12 12 9 8 10 10 5 5 8 10 9 10 10 11 12 10 12 9 7 8 8 7 9 9 9 10 11 11 12 10 6 7 10 10 11 11 10 9 8 6 9 13 17 14 8 9 10 12 14 14 15 16 16 16 15 15 14 14 13 12 10 11 11 11 8 8 7 7 8 8 9 8 7 8 9 8
6 7 9 15 8 5 12 12 12 13 14 12 9 7 7 6 9 6 8 9 9 10 9 8 8 10 9 7 7 7 6 8 10 10 11 11 10 10 10 10 10 7 7 8 11 14 15 13 10 7 7 7 13 16 12 9 9 11 13 14 14 15 16 16 17 16 17 17 16 15 14 11 11 11 11 9 9 8 7 9 9 9 9 8 9 9 9
9 10 11 10 10 12 10 11 12 11 8 9 8 8 7 8 8 9 8 6 7 6 4 4 5 7 6 7 8 8 8 10 11 12 13 13 12 12 13 13 9 8 8 11 13 15 16 15 10 7 8 9 11 12 12 9 10 12 13 15 16 17 17 16 16 16 17 15 14 14 14 12 10 10 10 9 9 9 9 9 9 9 10 9 9 10 11
11 16 17 14 10 10 10 10 10 13 14 13 8 7 7 7 6 4 4 4 3 3 4 4 4 7 8 8 9 9 10 12 12 13 13 14 14 14 12 12 9 8 10 12 14 15 16 16 12 10 10 11 12 11 10 10 10 11 14 15 16 17 19 16 15 15 15 18 18 14 13 11 11 11 10 10 11 11 11 11 11 11 10 11 12 11 11
12 16 15 13 13 12 13 15 12 12 10 8 7 4 4 6 7 8 7 3 3 4 4 4 5 8 11 9 9 9 12 14 14 14 13 14 14 15 15 14 10 12 11 13 14 14 16 15 12 12 12 12 13 13 11 9 9 12 14 16 17 19 18 16 15 15 14 13 13 13 13 13 12 12 12 11 12 12 13 11 12 12 11 12 12 11 10
13 13 13 9 9 9 9 7 6 3 4 4 4 6 6 7 7 7 9 11 6 3 3 4 5 7 11 13 11 12 13 14 16 16 15 14 15 16 15 13 13 14 14 13 14 15 16 13 14 12 14 12 12 9 9 9 11 13 16 17 17 18 16 14 14 13 12 12 12 13 12 13 13 13 14 19 16 13 13 15 21 21 16 12 11 9 10
13 13 13 8 8 9 10 8 6 8 6 6 7 5 5 6 5 5 7 10 13 12 9 4 6 9 10 13 11 12 13 15 15 15 16 16 16 17 16 15 15 15 14 14 13 15 15 13 13 15 14 15 13 11 8 9 10 14 15 15 15 16 15 14 14 14 12 12 13 12 13 13 14 15 14 13 21 27 26 19 17 21 25 26 21 16 13
16 17 18 14 10 12 6 4 5 6 6 6 3 4 4 4 6 7 6 6 9 12 13 11 5 7 11 12 11 13 16 17 17 17 16 16 15 15 13 13 14 16 17 15 15 18 15 14 15 16 16 17 14 11 10 10 11 12 14 14 15 16 16 15 15 14 13 12 13 13 13 13 13 14 14 15 13 16 23 25 27 25 24 26 27 26 23
15 9 3 3 2 5 3 1 7 6 7 6 5 6 7 8 8 7 8 8 6 7 10 14 14 8 8 13 11 13 14 17 16 16 18 18 17 16 15 14 15 14 14 15 17 13 17 15 18 17 19 19 15 11 11 11 10 14 15 16 17 17 16 16 15 16 15 14 12 10 12 14 13 11 12 13 14 13 10 17 23 25 25 24 25 26 26
4 6 7 3 3 1 2 3 3 7 8 7 5 5 7 7 10 10 9 8 9 8 10 11 14 14 9 10 12 12 14 16 17 17 15 15 14 14 15 17 16 15 16 15 15 18 15 20 18 21 20 19 13 13 12 14 14 15 16 16 17 15 15 14 14 13 13 12 13 13 11 11 12 11 12 11 13 12 12 8 9 15 23 26 25 24 26
6 6 7 8 6 3 7 6 5 8 8 7 7 8 8 9 10 9 9 9 9 9 8 9 10 12 12 10 11 12 14 17 18 16 14 15 19 16 17 13 17 19 19 20 20 20 22 22 21 21 23 20 16 14 15 14 16 16 16 15 15 17 28 24 15 12 12 14 13 12 14 13 14 14 14 13 13 13 12 11 10 10 8 11 19 24 19
5 6 6 2 6 3 4 5 5 6 6 7 8 8 8 9 9 10 11 10 9 7 8 6 10 11 13 12 11 16 15 14 15 17 16 18 15 15 16 19 18 20 19 20 19 19 17 18 18 21 20 18 14 15 14 17 16 16 15 14 13 14 14 16 14 13 13 13 13 13 14 15 15 15 14 11 11 11 11 11 11 10 10 9 9 14 26
4 4 2 2 5 6 5 5 4 4 5 4 5 5 8 12 13 9 8 8 11 12 12 10 7 8 11 15 14 15 15 15 15 17 17 18 16 18 16 18 19 19 16 18 18 17 16 17 18 19 20 15 14 14 15 15 15 13 14 13 13 13 12 11 11 13 13 13 11 14 16 16 14 13 13 15 14 11 10 10 11 10 10 7 6 7 13
4 5 5 4 5 3 5 6 5 7 6 6 7 6 7 9 12 14 11 9 8 12 11 11 13 13 11 13 14 12 16 17 18 17 17 15 17 14 17 16 17 16 14 13 15 15 17 16 17 17 17 12 14 13 13 13 15 16 18 17 16 15 12 12 12 14 12 12 13 20 17 15 13 13 14 14 14 12 11 10 10 10 9 8 8 9 10
5 6 6 5 1 3 4 7 5 6 6 5 7 10 8 7 9 12 14 12 11 10 12 12 13 16 14 12 13 14 14 15 15 17 16 18 16 16 14 15 14 15 13 17 16 17 17 18 15 16 13 13 11 13 14 14 14 13 14 12 13 21 28 30 25 18 15 16 17 14 14 14 12 11 12 11 12 12 11 10 10 9 9 8 9 9 10
6 7 3 1 3 5 5 3 6 6 5 5 8 9 8 10 13 15 14 14 13 12 15 16 14 14 14 14 13 15 14 15 15 16 14 14 16 15 16 15 18 20 20 17 17 15 16 16 20 18 18 18 18 15 15 14 13 13 12 13 13 13 17 25 17 17 16 15 14 14 15 12 10 10 10 11 11 11 9 9 10 9 9 9 10 10 9
5 4 1 5 8 6 5 3 7 8 5 9 8 7 7 7 8 10 12 13 14 14 13 14 13 14 14 14 13 13 14 14 13 12 15 16 18 16 15 16 16 16 18 19 18 18 17 18 16 17 15 16 14 16 13 14 12 13 11 11 12 13 15 16 18 16 15 16 14 13 10 12 12 13 12 12 10 10 9 10 9 9 9 10 10 9 8
1 1 3 1 3 6 11 12 4 9 9 6 6 8 8 7 8 11 11 12 12 14 13 14 14 15 14 15 15 14 14 14 13 14 16 18 17 17 17 16 15 18 16 17 17 14 12 14 14 13 13 14 15 14 15 14 13 10 12 11 12 13 13 13 15 13 13 14 13 15 16 17 14 11 11 10 10 9 10 9 9 9 9 9 9 8 11
3 5 5 6 4 6 7 9 11 10 11 13 10 7 7 9 9 10 12 13 13 13 13 14 15 15 14 13 13 13 13 14 14 14 17 15 17 15 17 16 18 16 19 15 15 13 13 13 14 15 16 15 15 14 13 14 12 12 12 13 14 13 12 13 12 12 13 13 13 12 13 13 14 14 12 11 10 9 9 9 9 9 8 8 7 7 8
3 4 5 5 5 5 7 8 9 10 11 11 11 11 11 10 11 12 13 13 12 13 13 13 13 13 14 14 13 13 14 12 14 14 15 17 16 15 15 18 18 18 17 19 15 12 13 14 19 23 18 15 13 13 13 13 13 12 12 13 12 13 13 13 13 12 13 12 13 13 12 14 14 14 11 8 9 8 8 8 8 7 8 7 6 7 7
3 5 5 6 6 6 8 9 9 9 10 10 11 12 12 12 12 12 11 12 12 12 13 12 12 14 15 15 14 13 11 12 11 13 15 16 14 15 16 17 16 15 16 15 16 13 15 14 20 28 20 12 13 14 15 20 13 11 11 11 11 11 12 11 11 11 12 12 12 12 14 13 12 11 9 7 7 7 7 7 6 6 6 6 6 6 7
5 5 7 7 8 8 9 9 8 9 11 13 12 11 12 12 12 12 11 11 12 11 10 10 12 13 14 13 13 12 13 13 14 13 15 14 15 16 18 13 13 12 12 11 15 15 13 18 25 19 14 13 13 14 16 22 23 15 11 11 11 11 11 12 12 12 11 11 12 11 11 11 10 8 7 7 7 6 6 5 5 6 5 5 6 6 4
5 5 6 7 7 9 9 9 7 8 9 12 12 11 12 11 12 11 11 12 10 9 10 11 11 13 12 13 13 14 14 13 14 14 14 16 14 14 15 15 11 11 12 15 17 15 15 17 18 15 13 13 15 15 16 19 22 13 11 10 11 10 10 11 11 11 11 10 10 10 10 10 9 8 6 6 5 5 3 4 5 4 5 5 5 6 7
6 6 7 7 7 8 8 9 8 9 9 8 9 12 11 10 10 10 10 9 8 9 10 12 12 10 12 12 13 14 14 15 13 13 14 15 16 16 16 13 10 13 16 21 17 14 19 27 19 13 13 13 14 13 13 18 18 12 10 9 9 10 9 9 9 8 8 8 9 11 10 9 5 3 3 3 4 4 4 4 6 5 7 7 7 7 8
7 7 7 7 8 8 8 9 9 9 9 9 9 10 9 10 10 9 8 9 9 8 9 8 9 10 10 12 13 14 14 13 13 13 13 13 14 13 13 15 14 16 17 17 17 17 19 17 15 14 13 14 13 14 13 16 12 9 9 8 8 7 7 6 5 4 5 6 4 3 1 2 4 4 3 4 4 5 5 6 6 7 7 8 8 8 8
7 7 8 8 8 8 8 8 8 8 8 8 9 9 8 6 6 8 8 8 9 8 8 8 9 10 10 11 12 13 13 13 14 15 12 10 12 12 14 14 16 15 23 23 19 17 14 14 14 13 14 15 13 21 22 12 10 9 9 9 8 8 7 7 7 7 7 6 6 5 5 4 5 5 5 5 6 6 7 7 7 7 7 7 8 8 9
7 7 8 8 8 8 7 7 7 9 9 9 7 5 6 6 6 6 7 8 8 8 8 7 8 9 9 10 11 12 13 13 15 16 17 12 11 9 9 12 15 15 25 18 16 13 13 12 13 13 22 21 17 24 18 10 10 9 9 9 9 8 8 7 7 8 8 7 7 7 7 6 6 6 6 6 6 6 7 7 8 7 8 7 7 8 8
7 7 7 7 8 8 7 7 7 7 6 6 5 6 6 5 5 6 7 7 7 7 7 7 8 9 9 9 9 9 9 10 10 10 10 13 15 7 5 11 13 16 23 16 14 13 12 13 12 22 27 27 28 24 13 10 10 9 10 10 9 9 8 7 8 8 8 8 8 7 7 7 7 7 7 7 7 8 8 7 7 8 8 8 8 8 8
7 7 7 8 9 7 6 6 6 6 5 5 6 6 5 4 6 6 6 6 7 7 6 6 7 8 8 8 8 8 8 8 7 8 10 12 13 15 15 16 17 13 16 22 13 12 11 13 20 29 25 28 26 23 12 11 11 10 10 9 9 9 8 9 8 8 8 8 8 8 8 7 7 7 7 8 8 8 8 8 8 7 8 8 8 9 8
6 7 7 7 7 6 6 5 5 4 5 6 6 5 4 5 6 6 5 5 5 6 6 7 7 7 8 9 8 9 9 8 6 5 5 5 8 12 14 15 13 13 22 22 10 11 12 22 27 26 27 26 24 15 12 12 11 11 11 10 10 9 7 7 8 9 8 8 8 8 8 7 7 7 8 7 7 8 8 9 8 8 7 7 8 8 9
6 6 7 7 6 6 6 4 5 5 5 5 5 5 5 5 6 4 5 6 5 6 5 5 5 6 5 7 7 8 10 11 12 6 4 6 8 10 13 16 16 19 18 13 12 11 13 17 20 25 25 23 20 11 11 12 12 11 11 11 10 9 10 9 8 8 8 7 8 8 9 9 8 7 8 8 8 8 7 8 8 8 8 8 9 9 10
6 8 7 8 7 6 5 6 5 5 5 5 5 5 5 5 6 4 4 4 6 5 4 3 4 3 4 4 5 3 5 5 10 11 5 9 10 10 9 9 13 19 20 14 16 14 23 26 25 25 24 21 12 11 11 11 10 10 11 11 11 11 11 10 10 10 9 9 8 8 8 8 8 7 8 8 6 7 7 7 8 8 7 8 8 8 9
7 7 7 5 3 5 5 5 5 5 4 5 5 4 5 5 5 4 5 6 7 6 6 5 5 4 4 5 4 5 4 3 3 7 10 9 9 9 9 11 15 16 13 10 12 11 18 25 23 24 22 16 11 11 10 10 11 11 10 10 9 10 10 10 9 9 9 9 9 9 8 9 8 8 7 8 7 7 8 8 7 7 7 8 8 7 8
4 4 3 2 3 3 5 4 4 4 4 4 4 4 4 4 4 5 5 6 6 7 5 5 5 5 5 6 5 5 5 5 6 6 7 8 8 8 8 9 9 13 13 10 10 11 13 19 18 18 15 11 11 11 10 11 10 11 10 10 9 9 10 11 11 12 10 10 10 9 9 9 9 9 9 8 8 8 8 8 7 9 12 9 7 7 7
4 3 3 3 3 3 4 4 4 5 4 4 4 4 4 4 4 5 4 6 6 6 7 7 6 5 6 6 6 6 6 6 6 7 7 7 7 8 9 8 9 9 10 10 9 10 9 10 11 12 12 10 10 10 10 11 10 10 10 10 10 9 10 10 9 10 10 9 8 9 9 8 8 9 8 8 8 8 7 7 7 7 7 7 8 7 9
4 5 2 2 3 3 3 3 4 3 3 3 4 4 4 4 4 4 4 6 5 5 5 7 9 7 5 6 7 7 7 7 7 7 7 7 8 7 8 9 8 9 9 9 9 9 9 9 10 11 11 10 9 9 9 11 10 10 10 10 9 10 10 10 9 9 9 9 9 8 9 8 7 8 8 7 7 8 8 7 7 7 7 7 7 8 9
Wind_Direction
314 324 315 313 307 295 298 289 291 282 282 278 270 262 265 275 258 275 293 300 299 296 38 41 33 352 5 5 0 358 349 4 12 16 15 13 8 2 5 2 1 4 2 357 355 354 353 354 358 357 356 355 355 354 354 349 349 349 347 346 347 345 341 339 331 321 312 298 280 268 259 257 252 244 237 233 230 223 216 218 215 215 210 207 206 208 208
313 296 295 302 298 300 294 293 287 285 283 274 267 270 276 280 278 280 281 278 273 326 59 9 47 29 331 349 339 354 12 10 8 10 11 10 3 3 359 353 353 352 351 351 353 351 351 355 353 354 355 353 352 350 349 348 345 344 346 347 346 346 350 348 342 334 322 311 298 285 277 263 254 247 241 235 229 225 222 218 217 212 206 206 208 209 207
306 293 286 281 282 290 288 290 290 278 268 267 267 280 278 272 269 270 270 267 270 80 19 15 311 320 249 259 1 23 12 3 8 8 3 0 355 351 350 350 343 345 344 345 347 350 350 350 349 349 349 346 346 349 348 345 344 341 346 344 347 348 347 346 341 340 337 328 318 303 286 275 268 257 246 239 233 231 229 220 215 210 203 207 209 208 208
294 288 286 292 293 289 287 287 285 275 267 272 277 267 263 268 281 291 289 274 264 58 354 267 306 338 350 358 331 12 4 8 8 5 353 349 343 341 341 339 339 341 342 342 346 345 344 343 344 345 345 344 346 348 346 343 339 336 340 341 339 340 339 339 342 341 340 334 327 315 303 287 275 264 257 247 239 234 229 224 219 209 212 213 209 206 206
259 276 283 303 317 318 287 256 249 258 272 259 262 263 35 72 192 271 254 262 67 265 313 0 324 354 323 352 321 319 343 327 1 359 342 337 331 336 333 334 339 336 335 336 335 336 337 338 338 337 338 339 343 341 339 335 334 335 334 330 328 330 335 338 340 341 339 338 330 322 312 299 288 279 264 251 244 237 229 224 214 215 220 212 213 209 204
275 276 289 10 316 267 256 278 46 180 247 270 278 289 60 23 88 161 78 164 46 240 272 301 289 309 299 306 289 262 176 305 331 344 328 326 319 321 322 324 327 325 322 324 325 326 326 325 324 323 332 331 331 334 328 328 331 330 331 329 330 329 335 339 340 340 340 337 331 323 315 306 294 279 265 254 245 237 236 223 218 222 219 216 215 210 210
263 288 359 312 258 257 266 330 305 79 95 94 111 115 84 297 93 106 107 197 24 265 271 260 260 252 253 255 266 245 224 222 314 321 319 315 312 313 311 313 312 310 310 311 315 321 324 323 323 327 329 334 333 332 334 331 329 329 326 322 320 321 329 331 337 340 339 336 331 326 320 309 295 281 266 264 258 244 229 222 220 219 216 217 216 213 212
319 217 211 247 257 107 297 183 72 23 81 120 82 42 182 253 237 186 168 230 198 245 252 272 264 267 266 248 251 237 221 196 221 272 281 286 281 282 279 289 297 301 303 305 306 308 309 311 313 321 321 328 334 328 330 330 328 330 329 328 327 330 334 337 339 338 335 330 327 324 322 317 306 290 278 264 260 251 240 238 234 232 232 224 220 216 213
235 226 202 242 320 310 269 230 332 108 196 110 111 219 256 172 245 203 203 228 216 226 247 253 267 272 294 294 287 189 198 211 220 221 240 248 253 253 257 262 277 284 288 290 291 294 300 302 312 315 319 327 328 326 327 326 328 327 330 330 331 334 334 334 333 331 330 325 322 320 319 317 309 300 291 278 265 254 245 240 232 226 226 218 217 215 211
228 246 267 269 256 255 303 219 258 324 215 176 264 130 273 148 298 247 192 220 231 226 242 254 256 281 322 312 305 208 223 219 229 238 242 245 247 246 249 257 265 277 285 285 286 295 300 301 303 310 316 325 322 319 319 321 324 323 325 324 326 329 327 327 326 325 324 324 319 317 315 311 303 298 290 282 273 252 239 239 234 232 224 225 222 217 214
273 271 266 271 268 254 138 221 206 243 170 201 223 101 264 164 177 262 183 221 244 225 231 241 223 118 270 279 278 250 216 232 245 253 242 238 242 245 247 262 278 280 277 278 287 294 293 296 302 310 314 318 317 310 312 315 315 314 313 317 324 326 323 320 319 318 318 318 317 313 309 302 296 291 285 274 267 246 242 242 241 234 222 225 223 218 220
241 262 261 259 238 236 261 201 252 219 131 151 96 299 301 122 281 249 193 214 235 236 232 228 208 205 249 260 267 248 236 223 227 238 260 259 250 252 265 268 267 274 279 286 289 287 287 286 294 302 308 310 304 303 305 309 307 304 306 312 318 317 314 314 313 313 314 314 312 311 306 299 292 280 275 276 261 243 242 233 238 223 217 219 218 219 210
244 248 261 275 284 292 196 205 233 259 213 140 283 259 282 304 300 217 195 214 231 239 247 216 223 223 228 238 254 261 261 265 251 247 242 247 248 259 270 276 279 277 272 272 279 281 277 280 289 294 303 303 297 296 302 302 295 296 303 313 316 313 311 308 308 307 307 307 305 304 297 292 288 283 270 260 258 246 246 244 237 230 220 219 216 219 205
233 229 245 245 260 237 224 249 186 248 45 285 247 247 164 293 303 263 186 219 233 240 240 238 234 242 242 250 265 274 268 259 260 259 257 256 267 263 265 273 278 276 281 284 284 282 277 282 288 296 299 294 291 294 295 288 288 300 309 315 316 313 308 306 303 301 304 305 303 297 295 291 290 283 275 258 249 244 241 237 236 236 228 219 216 215 210
49 322 250 270 260 325 100 223 344 172 165 230 232 288 300 245 262 258 251 229 250 242 264 254 253 252 254 254 255 254 256 261 269 267 261 264 267 278 287 287 276 277 289 289 284 281 286 288 293 296 299 293 291 293 286 283 297 305 315 317 314 308 304 302 303 304 305 305 303 301 292 284 277 279 277 265 252 234 235 235 237 240 228 221 213 217 212
251 223 230 219 216 202 226 116 216 236 221 234 289 306 300 301 272 246 255 251 250 255 253 262 261 254 252 260 263 261 263 266 271 272 267 271 280 283 280 273 279 289 283 279 282 283 284 287 289 287 289 288 288 288 284 295 309 316 319 313 309 304 301 301 304 304 303 300 298 294 290 285 270 267 266 252 248 232 223 224 230 233 234 222 219 218 216
213 203 233 254 247 136 237 197 237 246 270 283 285 284 273 288 287 242 246 268 281 280 271 258 255 262 252 250 254 265 273 286 285 283 283 288 289 288 287 287 288 295 285 286 287 285 282 281 280 282 281 283 285 282 285 310 316 318 314 310 305 300 301 303 301 300 299 296 295 293 285 275 272 267 257 241 241 233 220 225 222 228 231 215 220 223 221
268 254 256 271 282 286 285 278 280 281 282 287 289 288 286 243 246 256 269 281 284 282 277 272 254 246 259 279 289 287 298 294 292 293 293 289 285 282 283 285 288 288 288 282 282 281 283 278 278 281 278 272 277 280 297 313 316 313 306 303 300 298 297 295 295 297 296 294 289 285 283 271 260 258 259 247 233 233 217 224 220 222 227 218 222 223 227
276 268 251 256 263 265 270 271 273 277 270 269 282 282 253 262 269 279 281 288 288 286 301 259 280 291 302 303 300 307 303 294 289 290 290 291 290 288 286 284 292 294 288 284 281 281 282 283 281 278 278 276 274 285 295 311 314 308 304 303 298 295 290 290 290 291 289 289 290 289 284 278 262 257 251 245 237 233 221 221 222 222 223 220 222 223 227
242 261 265 264 257 252 256 265 275 280 283 282 270 249 266 282 294 313 321 355 333 4 346 5 352 312 308 302 299 302 297 293 293 291 291 291 292 288 284 286 291 287 278 276 279 282 282 284 291 289 281 279 282 288 297 307 308 307 300 296 294 291 289 288 286 285 284 284 286 284 281 275 271 263 249 238 239 232 222 217 219 224 219 219 221 218 224
254 260 265 271 271 271 269 267 263 260 269 284 292 322 2 9 3 351 339 4 346 354 333 353 331 309 299 297 295 297 297 294 291 290 292 292 291 292 294 295 296 285 286 282 278 281 281 286 289 288 282 283 286 294 301 308 308 303 295 292 290 286 284 283 279 278 277 278 278 281 281 276 264 258 258 251 240 244 234 224 219 221 218 223 222 220 217
262 263 271 271 286 282 277 265 277 6 357 359 5 17 18 13 1 350 338 325 330 319 324 333 319 304 301 303 306 301 292 288 289 292 293 294 294 291 290 294 291 289 285 282 284 284 283 288 291 287 288 285 286 293 305 306 305 298 296 292 287 282 281 279 277 277 277 276 274 276 277 278 279 272 252 245 244 241 251 226 227 228 223 226 221 210 218
263 265 265 265 259 274 263 292 50 80 23 34 30 20 356 337 343 336 335 326 324 321 319 331 309 294 290 291 301 294 289 287 289 291 294 294 292 291 294 295 292 290 289 289 288 283 285 293 291 292 291 290 291 295 298 293 292 288 285 284 282 280 281 279 280 284 284 283 282 279 278 278 279 279 281 264 249 249 248 244 229 231 235 237 235 218 210
267 272 274 281 271 266 295 37 90 67 43 36 30 350 336 321 333 333 324 317 314 310 312 310 304 298 297 296 301 294 292 289 290 292 292 290 287 291 293 293 295 298 299 298 294 293 294 294 292 291 289 287 290 297 296 288 282 276 275 276 278 279 280 282 284 283 281 279 279 276 275 274 272 276 277 277 269 246 248 250 246 241 239 238 238 235 228
257 277 0 351 291 293 317 42 98 80 47 27 5 336 337 332 327 332 319 312 309 304 305 305 308 306 299 295 295 291 291 292 294 299 300 299 299 299 300 301 298 299 296 296 295 295 295 294 294 291 289 287 292 296 290 284 275 274 274 273 273 275 275 278 279 281 279 278 275 271 271 272 271 261 261 262 265 274 251 243 247 243 239 237 236 236 233
26 351 316 278 238 309 29 110 105 49 8 9 346 330 336 331 325 324 319 321 312 310 299 298 301 306 308 299 301 301 299 296 303 307 306 305 303 302 300 299 299 298 295 294 292 292 292 292 290 289 286 287 294 292 285 279 275 270 269 267 267 269 273 274 275 273 271 267 266 268 266 264 262 260 259 261 266 264 268 259 244 244 243 239 236 235 234
38 358 343 328 280 127 44 67 297 350 336 340 341 330 329 327 327 317 310 307 296 293 292 298 302 305 312 311 313 306 303 306 307 301 298 296 297 299 301 301 299 297 294 292 290 288 289 289 286 284 284 286 291 286 280 275 274 270 266 265 266 265 270 275 274 270 267 270 268 263 257 251 253 254 252 253 251 255 253 251 245 239 230 232 233 231 229
39 17 24 182 270 343 337 13 335 322 330 337 335 330 334 329 321 316 313 317 317 316 314 317 317 318 315 314 319 308 305 298 293 297 298 297 297 297 296 294 291 289 288 286 284 284 283 281 280 280 280 285 284 278 274 274 271 269 268 266 265 267 271 270 267 266 265 264 266 270 277 282 287 287 289 279 255 246 244 241 242 240 240 226 219 223 225
21 357 29 269 274 293 316 310 307 316 322 323 329 340 346 332 321 316 313 323 319 319 317 319 319 315 311 308 312 304 301 300 300 299 297 296 293 292 288 287 284 282 281 282 281 281 279 276 277 278 279 280 275 271 270 269 269 271 275 274 272 268 263 258 255 258 262 260 257 261 266 266 261 256 257 265 269 260 245 241 236 235 236 225 203 214 225
337 327 319 309 290 307 332 329 326 329 325 336 344 341 339 330 317 314 315 321 324 314 311 318 316 311 312 302 302 301 301 300 299 297 295 292 291 288 289 287 286 281 278 275 280 282 280 278 279 276 280 279 273 269 269 273 279 280 277 271 265 262 255 257 254 260 258 254 260 265 264 260 252 247 251 255 258 253 246 240 233 230 228 219 208 206 205
319 295 289 287 297 354 332 308 311 299 320 335 345 327 325 318 301 297 307 315 318 309 312 313 308 305 307 302 298 295 290 290 289 292 292 294 292 293 292 294 297 300 298 295 290 288 283 284 282 285 290 291 289 287 286 283 279 277 277 280 283 284 285 286 284 282 282 280 279 276 268 265 257 254 255 256 251 244 239 233 233 227 225 218 213 211 210
320 314 310 139 359 327 311 301 303 312 318 337 331 323 323 324 318 315 313 315 312 315 310 309 307 305 302 300 296 295 294 293 292 293 292 295 302 304 304 300 295 293 295 296 298 300 302 302 299 296 295 294 292 288 284 282 281 278 276 278 275 274 275 275 272 269 266 263 259 258 263 265 255 244 243 240 242 241 234 229 228 224 221 217 216 215 203
10 2 347 327 330 315 293 313 323 314 326 316 308 300 306 301 294 296 298 302 306 308 305 299 301 300 302 300 299 298 299 299 298 298 306 308 308 305 306 308 305 306 303 303 301 300 296 293 291 293 292 290 287 285 279 277 273 275 273 270 270 273 277 278 277 279 279 280 280 274 261 248 247 248 247 247 242 233 229 227 224 223 220 220 219 214 197
298 230 271 261 262 293 307 306 295 295 296 280 285 300 298 295 294 293 295 297 296 298 301 302 301 302 302 305 304 306 309 315 317 318 315 313 314 315 313 309 303 299 294 292 293 292 291 288 288 289 289 288 285 282 281 277 275 270 272 273 274 274 271 269 270 268 267 265 262 264 268 276 275 257 244 237 232 229 226 223 221 218 219 219 218 210 208
291 289 296 285 290 280 287 287 299 299 303 304 304 292 288 292 293 291 293 297 297 298 299 298 300 301 303 302 310 315 317 313 310 311 313 314 313 311 311 308 306 302 300 295 294 294 290 289 291 293 292 287 285 282 278 276 273 272 271 270 271 268 266 265 263 259 260 261 263 265 265 260 258 266 255 236 226 225 222 221 219 215 214 212 208 199 201
317 298 293 288 284 279 275 279 281 283 289 289 291 297 299 297 295 297 297 293 293 295 295 295 298 303 310 317 315 316 315 313 311 311 310 311 311 310 309 309 309 307 304 303 302 303 302 303 300 299 299 295 290 286 281 281 277 273 268 269 265 266 263 262 259 259 259 257 262 264 264 258 259 260 258 242 229 222 221 217 215 211 210 205 195 184 184
285 281 281 285 281 278 275 274 277 282 281 284 290 294 293 292 289 286 287 290 292 292 294 299 308 316 315 314 310 307 304 306 308 309 309 308 308 309 309 309 308 308 311 307 310 315 310 306 303 303 303 295 292 289 289 287 284 279 274 269 263 262 260 259 254 250 252 251 254 257 261 264 254 249 245 235 228 223 217 215 207 202 202 194 182 178 180
289 281 278 278 279 278 273 269 273 274 280 281 281 279 282 284 285 286 287 286 287 291 300 312 314 310 308 307 307 306 310 312 311 309 309 308 314 313 312 314 314 315 312 308 311 313 310 309 308 308 305 302 298 299 295 295 293 287 277 273 264 260 253 252 253 248 248 250 250 250 253 255 252 241 229 225 219 216 208 202 191 184 179 167 174 166 146
293 282 277 272 275 275 279 281 278 274 272 274 278 280 277 276 278 282 284 286 292 310 319 316 312 311 310 313 315 314 314 316 318 316 316 316 315 315 307 307 298 302 301 307 311 312 312 316 319 314 309 306 307 304 301 301 303 296 288 277 273 256 250 244 246 242 244 247 252 256 258 256 245 237 219 211 205 191 183 163 153 147 148 134 97 92 99
282 284 279 283 281 280 281 279 275 272 268 263 268 275 279 283 284 284 285 298 314 322 316 313 313 310 316 317 319 317 317 319 320 320 319 318 318 316 314 314 324 325 324 320 320 319 326 327 325 317 315 315 313 309 310 316 318 315 306 302 298 296 281 258 242 244 249 247 249 251 250 249 224 198 169 145 134 124 121 121 118 100 88 87 95 96 96
280 283 285 278 276 277 276 279 278 272 271 272 270 269 273 276 282 294 311 316 314 313 308 308 310 310 313 316 314 312 314 316 319 320 319 320 322 329 327 318 328 333 327 327 325 327 329 329 327 323 323 323 318 325 322 323 326 323 318 313 312 312 317 322 322 288 264 257 251 249 173 108 92 90 87 96 92 96 96 91 87 97 107 107 101 100 93
281 280 278 279 278 277 275 274 277 283 281 274 274 274 276 288 309 310 309 308 306 304 304 302 309 314 314 313 313 314 316 321 325 325 330 330 326 326 321 317 330 327 327 328 330 330 330 331 330 331 332 331 329 333 335 334 334 332 334 335 337 342 344 348 360 6 10 22 27 34 37 56 69 74 71 81 80 84 87 90 91 87 89 91 95 101 109
280 279 278 279 279 280 278 280 280 280 283 285 280 290 313 310 301 305 307 304 303 302 303 304 312 318 320 322 320 325 329 331 331 329 328 326 325 301 290 309 321 324 329 332 333 333 334 333 337 338 342 344 342 343 343 345 344 344 346 348 350 355 3 5 13 18 23 28 30 32 34 44 48 62 65 68 68 71 79 85 90 88 89 81 92 94 96
277 275 276 276 278 279 280 281 281 285 290 296 313 313 308 307 306 305 306 305 304 306 312 317 324 328 326 326 327 329 325 329 326 330 325 322 326 324 315 326 325 326 333 337 337 336 334 339 339 348 349 354 353 352 349 350 349 353 357 359 359 2 1 5 14 23 27 29 31 35 38 44 49 54 61 66 70 68 68 69 75 83 93 93 92 96 99
278 274 277 278 278 284 284 284 288 297 304 310 310 312 311 305 304 301 299 300 305 314 320 324 325 326 329 330 328 318 313 313 316 325 329 331 332 325 337 336 331 332 333 338 336 337 341 343 348 354 359 0 360 356 356 355 357 359 358 3 6 9 10 15 17 23 26 30 33 35 40 44 49 51 57 61 67 72 74 77 76 76 87 90 94 101 105
282 285 283 288 291 289 282 280 285 302 308 315 313 311 307 301 305 305 297 302 312 321 326 322 323 323 326 328 326 323 322 322 326 315 291 301 312 309 318 324 326 327 332 337 336 340 344 346 354 360 2 5 6 5 3 360 1 0 5 3 6 360 358 4 16 28 25 27 31 34 38 36 38 44 51 57 61 74 76 76 79 74 80 85 91 96 104
281 292 294 291 291 296 305 312 313 312 316 321 322 318 317 315 314 306 301 308 322 321 317 309 312 312 323 332 338 339 338 332 324 319 309 316 315 312 317 321 325 331 339 340 343 342 346 348 354 360 5 6 9 8 7 9 7 6 6 10 8 11 9 11 12 17 25 32 37 43 45 45 47 52 57 61 63 64 70 76 76 78 78 83 88 93 100
291 293 299 302 313 319 327 325 331 330 330 321 306 299 308 308 311 302 314 335 335 327 318 313 317 320 326 332 325 317 305 312 316 311 339 334 323 319 323 331 331 336 338 340 341 337 345 351 356 1 6 9 9 10 9 10 9 5 8 7 10 10 11 11 11 12 11 15 22 34 37 42 43 51 53 57 53 59 65 74 85 87 82 85 91 96 104
300 298 298 295 314 320 342 338 341 333 320 303 304 302 314 312 305 325 348 345 344 343 336 334 333 336 331 331 327 318 303 284 258 282 308 317 315 321 320 329 332 339 343 340 342 340 346 350 354 359 2 6 10 9 10 10 12 15 15 13 9 10 8 16 19 20 24 24 27 30 33 36 38 42 51 55 60 62 70 69 68 73 88 89 90 90 93
298 310 303 327 333 345 355 346 332 308 305 305 309 315 320 329 344 353 352 347 344 332 323 331 340 337 335 335 329 319 310 314 299 291 296 310 316 319 326 331 332 340 344 343 340 342 342 347 353 357 2 2 4 8 10 9 12 16 18 14 16 17 15 19 22 26 26 29 30 32 32 33 36 39 43 48 50 53 56 61 65 68 71 76 81 85 88
317 315 297 339 341 347 340 320 297 306 303 316 311 317 334 348 347 339 339 342 341 342 344 336 330 335 337 340 332 326 330 328 324 324 324 326 328 331 336 336 335 339 344 346 349 345 345 350 353 355 358 2 3 4 8 8 10 13 16 20 19 20 19 18 21 26 27 28 32 34 35 38 39 45 42 47 47 52 47 51 50 50 53 67 73 60 50
310 287 260 1 338 348 321 303 297 312 318 329 328 335 340 343 338 334 333 348 349 336 337 339 331 332 347 335 330 332 332 331 333 330 331 330 336 334 335 338 343 344 347 349 347 346 348 349 352 354 359 2 2 1 0 5 12 14 14 16 18 21 25 26 24 30 28 27 29 33 31 32 38 46 47 45 50 52 53 55 60 64 71 78 85 91 94